Overview Statistics Trail Chart Weather Telemetry Raw packets
 

This is the latest recevied weather packets stored in our database for station/object KI5NXU. If no packets are shown the sender has not sent any weather packets the latest 10 day(s).

<< 97 98 99 100 101 102 103 >>
Time Temp. Humidity Pressure Rain* Wind** Luminosity Snow
1787663948 27.78° C 56% 1016.3 hPa 0 mm - 23 W/m² -
1787663643 27.78° C 56% 1016.2 hPa 0 mm - 24 W/m² -
1787663338 28.33° C 55% 1015.9 hPa 0 mm - 32 W/m² -
1787663035 27.78° C 55% 1016 hPa 0 mm - 39 W/m² -
1787662734 27.78° C 56% 1015.9 hPa 0 mm - 45 W/m² -
1787662429 27.78° C 56% 1015.7 hPa 0 mm - 47 W/m² -
1787662124 27.78° C 56% 1015.8 hPa 0 mm - 42 W/m² -
1787661821 27.78° C 55% 1015.6 hPa 0 mm - 35 W/m² -
1787661520 27.78° C 55% 1015.6 hPa 0 mm - 24 W/m² -
1787661218 28.33° C 55% 1015.9 hPa 0 mm - 17 W/m² -
1787660918 27.78° C 55% 1015.8 hPa 0 mm - 14 W/m² -
1787660612 27.78° C 54% 1015.7 hPa 0 mm - 10 W/m² -
1787660308 28.33° C 54% 1015.2 hPa 0 mm - 6 W/m² -
1787660003 28.33° C 54% 1015.3 hPa 0 mm - 2 W/m² -
1787659701 28.33° C 55% 1015.2 hPa 0 mm - 1 W/m² -
1787659396 28.33° C 53% 1015.1 hPa 0 mm - 0 W/m² -
1787659096 28.33° C 54% 1015.1 hPa 0 mm - 0 W/m² -
1787658791 28.33° C 53% 1015 hPa 0 mm - 0 W/m² -
1787658490 28.89° C 52% 1015 hPa 0 mm - 0 W/m² -
1787658187 28.89° C 52% 1014.8 hPa 0 mm - 0 W/m² -
1787657882 28.33° C 52% 1014.8 hPa 0 mm - 0 W/m² -
1787657581 28.33° C 52% 1014.6 hPa 0 mm - 0 W/m² -
1787657276 28.33° C 52% 1014.3 hPa 0 mm - 0 W/m² -
1787656972 28.89° C 51% 1014.4 hPa 0 mm - 0 W/m² -
1787656669 28.89° C 51% 1014.5 hPa 0 mm - 0 W/m² -

* Rain latest hour (hover to see other rain measurements)
** Current wind speed in m/s (hover to see current wind gust speed)